sat.trackr.live / text

‹ back to catalog

STARLINK-37634

NORAD 69028 · 2026-101D

PAYLOAD ACTIVE UNKNOWN

§ Identity

Operator
Country
US
Launch date
2026-05-06
Launch site
AFWTR
Launch vehicle
Mass (kg)
RCS (m²)

Purposes: comms

External: N2YO · Heavens-Above · Gunter

§ Orbital elements

Epoch: 2026-05-25T03:35:08.102112Z

Period
91.42 min
Inclination
97.2849°
Eccentricity
0.0001011
Mean motion
15.75192587 rev/d
Perigee alt
343.4 km
Apogee alt
344.8 km
Semi-major
6,722.2 km
B*
5.9926e-4
RAAN
359.8959°
Arg perigee
87.6882°
Mean anomaly
272.4499°
Rev number
301

§ Raw data

STARLINK-376341 69028U 26101D   26145.14939933  .00090211  00000+0  59926-3 0  99902 69028  97.2849 359.8959 0001011  87.6882 272.4499 15.75192587  3017

JSON: /api/v1/satellites/69028 · /tle

For live sub-satellite position, see the globe view (requires WebGL).

§ Visibility from observer

Set your observer location to see the next 7 days of passes ≥ 10°. The values pass through the URL so the page stays shareable.

No JS? Fill the form by hand. The geolocation button needs JavaScript.